Hourly Data Report for March 30, 2006

TORONTO CITY
ONTARIO

43°40'00.000" N
79°24'00.000" W
112.50 m
6158355
71508
XTO

Download Data

Hourly Data (March 2006)
Hourly Data Report for March 30, 2006
TIME
LST
Temp Definition
°C
Dew Point Definition
°C
Rel Hum Definition
%
Precip. Amount Definition
mm

Wind Dir Definition
10's deg

Wind Spd Definition
km/h
Visibility Definition
km
Stn Press Definition
kPa
Hmdx Definition


Wind Chill Definition


Weather Definition


00:00 7.8 -0.4 56   LegendMM LegendMM   101.09     LegendNANA
01:00 7.5 -0.8 56   LegendMM LegendMM   101.11     LegendNANA
02:00 7.4 -1.8 52   LegendMM LegendMM   101.05     LegendNANA
03:00 5.1 0.3 71   LegendMM LegendMM   101.06     LegendNANA
04:00 4.1 0.6 78   LegendMM LegendMM   101.05     LegendNANA
05:00 5.4 0.7 72   LegendMM LegendMM   101.06     LegendNANA
06:00 4.9 0.3 72   LegendMM LegendMM   101.11     LegendNANA
07:00 4.6 1.4 80   LegendMM LegendMM   101.17     LegendNANA
08:00 7.7 1.7 66   LegendMM LegendMM   101.22     LegendNANA
09:00 10.2 2.9 60   LegendMM LegendMM   101.22     LegendNANA
10:00 11.9 2.1 51   LegendMM LegendMM   101.21     LegendNANA
11:00 12.0 1.8 50   LegendMM LegendMM   101.18     LegendNANA
12:00 13.6 2.6 47   LegendMM LegendMM   101.09     LegendNANA
13:00 13.1 1.3 45   LegendMM LegendMM   101.03     LegendNANA
14:00 14.6 2.2 43   LegendMM LegendMM   100.93     LegendNANA
15:00 14.5 1.7 42   LegendMM LegendMM   100.82     LegendNANA
16:00 15.4 1.6 39   LegendMM LegendMM   100.76     LegendNANA
17:00 13.7 2.0 45   LegendMM LegendMM   100.72     LegendNANA
18:00 10.7 1.1 51   LegendMM LegendMM   100.69     LegendNANA
19:00 9.2 1.3 58   LegendMM LegendMM   100.69     LegendNANA
20:00 8.9 1.8 61   LegendMM LegendMM   100.69     LegendNANA
21:00 8.7 2.0 63   LegendMM LegendMM   100.68     LegendNANA
22:00 9.1 2.3 62   LegendMM LegendMM   100.63     LegendNANA
23:00 9.5 2.4 61   LegendMM LegendMM   100.62     LegendNANA

Notes on Data Quality.

Legend

  • E = Estimated
  • M = Missing
  • NA = Not Available*
  • [empty] = Indicates an unobserved value
Date modified: